ブレッシ彗星

404P/Bressi (2023)

English version
Home page
Updated on March 24, 2025

---------------------------------------------------------------------

・ プロフィール

符号 404P/2020 M6
検出日 2020年6月17日
検出光度 22.1等
検出者 Pan-STARRS 1 telescope (Haleakala)

・ 写真集

・ 軌道要素

Epoch 2024 Mar. 31.0 TT = JDT 2460400.5
T 2023 Nov. 4.07959 TT                                  Rudenko
q   4.1326823            (2000.0)            P               Q
n   0.09584146     Peri.  169.36777     +0.34912648     -0.92195497
a   4.7289760      Node   260.03608     +0.84677379     +0.38702342
e   0.1260936      Incl.    9.80102     +0.40135377     -0.01455673
P  10.3
>From 526 observations 2011 Oct. 24-2024 Apr. 10, mean residual 1".1.

・ 光度変化

        m1 = 3.0 + 5 logΔ + 20 log r

---------------------------------------------------------------------

軌道要素はM.P.E.C. 2024-J304に掲載されたものです。
光度グラフはComet for Windowsで作成したものです。

---------------------------------------------------------------------

Copyright(C) Seiichi Yoshida (comet@aerith.net). All rights reserved.